Location: Utrecht
(52.0917°N, 5.1178°E)
Time: 02:00:45

Tiangong 2 - Visible Passes

Search period start: 21 March 2018 00:00
Search period end: 31 March 2018 01:00
Orbit: 383 x 388 km, 42.8° (Epoch: 20 March)

Date Brightness Start Highest point End Pass type
(mag) Time Alt. Az. Time Alt. Az. Time Alt. Az.
21 Mar 3.4 05:47:31 10° SW 05:49:02 13° SSW 05:50:33 10° SSE visible
22 Mar 3.4 04:50:47 14° S 04:50:47 14° S 04:51:57 10° SSE visible
23 Mar 3.5 05:26:42 10° SSW 05:27:02 10° SSW 05:27:23 10° SSW visible
